TimeCDT,TemperatureF,Dew PointF,Humidity,Sea Level PressureIn,VisibilityMPH,Wind Direction,Wind SpeedMPH,Gust SpeedMPH,PrecipitationIn,Events,Conditions,WindDirDegrees,DateUTC
12:15 AM,75.2,69.8,83,29.93,10.0,South,6.9,-,N/A,,Clear,180,2013-06-13 05:15:00
12:35 AM,75.2,69.8,83,29.93,10.0,South,8.1,-,N/A,,Clear,180,2013-06-13 05:35:00
12:55 AM,75.2,69.8,83,29.94,10.0,South,6.9,-,N/A,,Clear,180,2013-06-13 05:55:00
1:15 AM,75.2,69.8,83,29.94,10.0,South,5.8,-,N/A,,Clear,190,2013-06-13 06:15:00
1:35 AM,73.4,69.8,88,29.94,10.0,South,5.8,-,N/A,,Clear,190,2013-06-13 06:35:00
1:55 AM,73.4,69.8,88,29.94,10.0,South,4.6,-,N/A,,Clear,190,2013-06-13 06:55:00
2:15 AM,71.6,68.0,88,29.94,10.0,SSW,3.5,-,N/A,,Clear,200,2013-06-13 07:15:00
2:35 AM,71.6,68.0,88,29.94,10.0,Calm,Calm,-,N/A,,Clear,0,2013-06-13 07:35:00
2:55 AM,71.6,68.0,88,29.94,10.0,SSE,3.5,-,N/A,,Clear,160,2013-06-13 07:55:00
3:15 AM,71.6,68.0,88,29.96,10.0,North,10.4,-,N/A,,Clear,360,2013-06-13 08:15:00
3:35 AM,71.6,69.8,94,29.96,10.0,NNE,9.2,-,N/A,,Clear,20,2013-06-13 08:35:00
3:55 AM,71.6,69.8,94,29.97,10.0,North,6.9,-,N/A,,Clear,350,2013-06-13 08:55:00
4:15 AM,71.6,68.0,88,29.97,10.0,NNE,4.6,-,N/A,,Clear,20,2013-06-13 09:15:00
4:35 AM,71.6,68.0,88,29.97,10.0,NE,4.6,-,N/A,,Clear,50,2013-06-13 09:35:00
4:55 AM,69.8,68.0,94,29.96,10.0,ESE,4.6,-,N/A,,Clear,110,2013-06-13 09:55:00
5:15 AM,69.8,66.2,88,29.97,10.0,Calm,Calm,-,N/A,,Clear,0,2013-06-13 10:15:00
5:35 AM,69.8,68.0,94,29.98,10.0,North,6.9,-,N/A,,Clear,350,2013-06-13 10:35:00
5:55 AM,69.8,68.0,94,29.99,10.0,NNE,4.6,-,N/A,,Clear,30,2013-06-13 10:55:00
6:15 AM,71.6,68.0,88,30.00,10.0,NNE,9.2,-,N/A,,Scattered Clouds,20,2013-06-13 11:15:00
6:50 AM,69.8,68.0,94,30.01,10.0,North,4.6,-,N/A,,Scattered Clouds,10,2013-06-13 11:50:00
7:50 AM,73.4,64.4,73,30.03,10.0,NNE,4.6,-,N/A,,Scattered Clouds,30,2013-06-13 12:50:00
8:50 AM,77.0,64.4,65,30.04,10.0,ENE,6.9,-,N/A,,Partly Cloudy,60,2013-06-13 13:50:00
9:50 AM,80.6,66.2,61,30.05,10.0,NE,9.2,-,N/A,,Partly Cloudy,50,2013-06-13 14:50:00
10:50 AM,86.0,66.2,51,30.03,10.0,East,5.8,-,N/A,,Partly Cloudy,90,2013-06-13 15:50:00
11:50 AM,89.6,68.0,49,30.03,10.0,East,8.1,-,N/A,,Partly Cloudy,100,2013-06-13 16:50:00
12:50 PM,93.2,69.8,46,30.01,10.0,ESE,4.6,-,N/A,,Partly Cloudy,110,2013-06-13 17:50:00
2:50 PM,98.6,68.0,37,29.98,10.0,SSW,5.8,-,N/A,,Partly Cloudy,200,2013-06-13 19:50:00
3:50 PM,100.4,68.0,35,29.95,10.0,South,5.8,-,N/A,,Scattered Clouds,170,2013-06-13 20:50:00
4:50 PM,100.4,66.2,33,29.92,10.0,SSE,6.9,-,N/A,,Partly Cloudy,160,2013-06-13 21:50:00
5:50 PM,100.4,66.2,33,29.90,10.0,SSE,9.2,-,N/A,,Partly Cloudy,160,2013-06-13 22:50:00
7:50 PM,93.2,69.8,46,29.89,10.0,SE,12.7,-,N/A,,Clear,130,2013-06-14 00:50:00
8:50 PM,86.0,73.4,66,29.91,10.0,East,12.7,-,N/A,,Partly Cloudy,90,2013-06-14 01:50:00
9:15 PM,82.4,71.6,70,29.92,10.0,ESE,11.5,-,N/A,,Clear,110,2013-06-14 02:15:00
9:35 PM,82.4,71.6,70,29.92,10.0,ESE,13.8,-,N/A,,Clear,110,2013-06-14 02:35:00
9:55 PM,82.4,71.6,70,29.93,10.0,ESE,12.7,-,N/A,,Clear,110,2013-06-14 02:55:00
10:15 PM,80.6,71.6,74,29.94,10.0,ESE,10.4,-,N/A,,Clear,110,2013-06-14 03:15:00
10:35 PM,80.6,71.6,74,29.95,10.0,ESE,11.5,-,N/A,,Clear,110,2013-06-14 03:35:00
10:55 PM,78.8,71.6,78,29.96,10.0,ESE,9.2,-,N/A,,Clear,110,2013-06-14 03:55:00
11:15 PM,78.8,71.6,78,29.97,10.0,ESE,9.2,-,N/A,,Clear,110,2013-06-14 04:15:00
11:35 PM,78.8,71.6,78,29.97,10.0,SE,6.9,-,N/A,,Clear,130,2013-06-14 04:35:00
11:55 PM,77.0,69.8,78,29.97,10.0,SSE,5.8,-,N/A,,Clear,150,2013-06-14 04:55:00